Regional Weather Roundup
Issued by NWS

Home | Current Version | Previous Version | Graphics & Text | Print | Product List | Glossary On
Versions: 1 2 3 4 5 6 7 8 9 10 11 12 13 14 15 16 17 18 19 20 21 22 23 24 25 26 27 28 29 30 31 32 33 34 35 36 37 38 39 40 41 42 43 44 45 46 47 48 49 50
000
ASUS43 KLOT 242110
RWRIL

ILLINOIS REGIONAL WEATHER ROUNDUP
NATIONAL WEATHER SERVICE CHICAGO/ROMEOVILLE IL
400 PM CDT FRI OCT 24 2014

NOTE: "FAIR" INDICATES FEW OR NO CLOUDS BELOW 12,000 FEET WITH NO
SIGNIFICANT WEATHER AND/OR OBSTRUCTIONS TO VISIBILITY.

* THESE STATIONS ARE NOT UNDER NWS QUALITY CONTROL. THEY ALSO MAY NOT
  REPORT WEATHER SUCH AS PRECIPITATION OR FOG.

ILZ001-002-007-009-015-016-024-242200-
NORTHWEST ILLINOIS

CITY           SKY/WX    TMP DP  RH WIND       PRES   REMARKS
MOLINE         PTSUNNY   70  53  54 S10       29.93F
STERLING*      SUNNY     68  43  40 SW6       29.96S
SAVANNA*       MOSUNNY   67  50  53 S8        29.94F
$$

ILZ003-004-008-010-011-017-018-242200-
NORTH CENTRAL ILLINOIS

CITY           SKY/WX    TMP DP  RH WIND       PRES   REMARKS
ROCKFORD       PTSUNNY   63  51  65 SW8       29.97F
FREEPORT*      MOSUNNY   61  50  66 SW13      29.97F
ROCHELLE*      SUNNY     67  46  46 SW12      29.97F
DE KALB*       SUNNY     64  46  52 SW7       29.97F
PERU*          SUNNY     69  50  50 SW10G16   29.97F
$$

ILZ005-006-012>014-019>023-242200-
NORTHEAST ILLINOIS

CITY           SKY/WX    TMP DP  RH WIND       PRES   REMARKS
CHICAGO-OHARE  PTSUNNY   66  46  48 W8        29.96S
CHICAGO-MIDWAY PTSUNNY   67  49  52 SW6       29.97S
AURORA         SUNNY     69  46  43 SW9       29.97F
LANSING*       SUNNY     66  48  51 W7        29.98S
JOLIET*        SUNNY     68  44  42 SW9       29.97F
WAUKEGAN       SUNNY     56  50  80 SE7       29.96F
DUPAGE AIRPORT SUNNY     68  45  43 SW9       29.97S
KANKAKEE*      SUNNY     68  47  45 SW9       29.99S
WHEELING       SUNNY     68  46  45 SW6       29.97F
MORRIS*        SUNNY     69  47  45 W6        29.97S
ROMEOVILLE*    SUNNY     68  42  40 W7        29.98S
NORTHERLY ISL    N/A     59  52  77 SE5         N/A
$$

LMZ740>746-242200-
SOUTHERN LAKE MICHIGAN

STATION/POSITION SKY/WX   TEMP    WIND        PRES    VSBY  WAVE
                          AIR SEA DIR/SP/G                  HT/PER
                          (F)     (DEG/KT/KT) (MB)    (MI)  (FT/S)
SOUTHERN BUOY              52 54  200/  6/  8 1015.3F         1
WAUKEGAN HARBOR            56     120/  4/  5   N/A
HARRISON CRIB              56     110/ 11/ 12   N/A
BURNHAM HARBOR             58     110/  6/  6   N/A
CALUMET HARBOR             65     220/  5/  8 1013.8F
MICHIGAN CITY              56      40/  5/  6   N/A
$$

ILZ025>027-034>036-040-047-049-050-058-095>099-242200-
WEST-CENTRAL ILLINOIS

CITY           SKY/WX    TMP DP  RH WIND       PRES   REMARKS
QUINCY         MOSUNNY   69  55  60 S10       29.97F
GALESBURG*     MOSUNNY   67  53  61 S14       29.96F
MACOMB*        MOSUNNY   71  54  55 S10       29.99F
JACKSONVILLE*  MOSUNNY   72  51  48 S8        30.00F
PITTSFIELD*    MOSUNNY   72  53  51 S9G17     30.00F
$$

ILZ028>032-037-038-041>044-048-051>054-059>061-242200-
CENTRAL ILLINOIS

CITY           SKY/WX    TMP DP  RH WIND       PRES   REMARKS
PONTIAC        SUNNY     71  45  39 SW10      29.99F
BLOOMINGTON    LGT RAIN  68  52  56 SW12      30.01S
DECATUR        PTSUNNY   61  56  83 SW10      30.03F
PEORIA         MOSUNNY   65  53  65 S6        29.99F
LACON*         SUNNY     66  49  54 S9        29.97F
LINCOLN*       MOSUNNY   66  54  64 S6        29.99F
SPRINGFIELD    MOSUNNY   69  52  54 S10       30.01F
TAYLORVILLE    PTSUNNY   64  52  63 SW9       30.02S
$$

ILZ033-039-045-046-055>057-062-063-242200-
EAST-CENTRAL ILLINOIS

CITY           SKY/WX    TMP DP  RH WIND       PRES   REMARKS
CHAMPAIGN      SUNNY     69  52  54 W9G17     30.01F
DANVILLE*      MOSUNNY   67  51  56 W10G18    29.98F
RANTOUL*       SUNNY     71  50  47 SW12      30.00S
MATTOON        MOSUNNY   67  54  63 W9G21     30.02S
PARIS*         MOSUNNY   68  53  57 SW3       30.02S
$$

ILZ079-100>102-242200-
SOUTHWEST ILLINOIS

CITY           SKY/WX    TMP DP  RH WIND       PRES   REMARKS
ALTON          MOSUNNY   70  50  49 SW7       30.03F
BELLEVILLE     SUNNY     72  53  50 W8        30.03F
CAHOKIA*       SUNNY     74  50  42 SW5       30.03F
SPARTA*        MOSUNNY   70  51  50 CALM      30.06S
$$

ILZ064>066-069>071-074>076-080>082-084>086-088>090-092>094-242200-
SOUTH-CENTRAL ILLINOIS

CITY           SKY/WX    TMP DP  RH WIND       PRES   REMARKS
CARBONDALE     MOSUNNY   70  52  52 W3        30.06S
CAIRO*         SUNNY     73  52  48 NW5       30.06S
EFFINGHAM*     MOSUNNY   69  51  51 W9        30.04S
MARION         MOSUNNY   70  54  56 W8        30.07S
MT. VERNON     MOSUNNY   70  54  56 SW10      30.06R
CENTRALIA*     SUNNY     68  51  55 W6        30.05S
SALEM*         MOSUNNY   69  57  66 W7        30.05S
METROPOLIS*    SUNNY     72  55  56 W6        30.06S
$$

ILZ067-068-072-073-078-083-087-091-242200-
SOUTHEAST ILLINOIS

CITY           SKY/WX    TMP DP  RH WIND       PRES   REMARKS
LAWRENCEVILLE  PTSUNNY   70  52  52 S9        30.03F
FLORA*         PTSUNNY   69  52  55 NW3       30.04S
FAIRFIELD*     PTSUNNY   71  53  52 W6        30.03F
HARRISBURG*    MOSUNNY   70  54  57 W6        30.06F
ROBINSON*      PTSUNNY   72  54  52 SW7       30.03F
CARMI*         MOSUNNY   72  55  53 SW5       30.04S
$$

ABBREVIATIONS USED IN REMARKS
   TC - TEMPERATURE IN CELSIUS
  WCI - WIND CHILL INDEX
   HX - HEAT INDEX
  VSB - VISIBILITY
$$




USA.gov is the U.S. government's official web portal to all federal, state and local government web resources and services.